Kingston, Jamaica

11:57 PM EST on June 19, 2018 (GMT -0500)
Norman Manley International

Weather History for MKJP - October, 2017

Change the Weather History Date:

Thursday, October 12, 2017

  Actual Average Record
Temperature  
Mean Temperature 84 °F -  
Max Temperature 89 °F 86 °F 92 °F (2014)
Min Temperature 78 °F 77 °F 73 °F (2007)
Cooling Degree Days 18    
Growing Degree Days 34 (Base 50)    
Moisture  
Dew Point 75 °F    
Average Humidity 73    
Maximum Humidity 84    
Minimum Humidity 64    
Precipitation  
Precipitation 0.00 in - - ()
Sea Level Pressure  
Sea Level Pressure 29.80 in    
Wind  
Wind Speed 5 mph ()    
Max Wind Speed 10 mph    
Max Gust Speed -    
Visibility 8.5 miles    
Events Thunderstorm    
Averages and records for this station are not official NWS values.
T = Trace of Precipitation, MM = Missing Value Source: Averaged Metar Reports

Daily Weather History Graph

Daily Weather History Graph

Search for Another Location

Airport or City:

Astronomy

Oct. 12, 2017 Rise Set
Actual Time 5:59 AM EST 5:46 PM EST
Civil Twilight 5:37 AM EST 6:08 PM EST
Nautical Twilight 5:12 AM EST 6:34 PM EST
Astronomical Twilight 4:47 AM EST 6:59 PM EST
Moon No Moon Rise 12:40 PM EST (10/12)
Length of Visible Light 12h 30m
Length of Day
11h 47m
Waning Gibbous, 48% of the Moon is Illuminated
Oct 12
Waning Gibbous
Oct 19
New
Oct 27
First Quarter
Nov 4
Full
Nov 10
Last Quarter

Hourly Weather History & Observations

Time (EST) Temp. Heat Index Dew Point Humidity Pressure Visibility Wind Dir Wind Speed Gust Speed Precip Events Conditions
12:00 AM 82.4 °F 89.5 °F 75.2 °F 79% 29.80 in 6.2 mi North 4.6 mph - N/A Thunderstorm Mostly Cloudy
1:00 AM 82 °F - 76 °F 77% 29.81 in 16 mi North 3.5 mph - -   Mostly Cloudy
1:00 AM 82.4 °F 88.2 °F 73.4 °F 74% 29.80 in 6.2 mi North 3.5 mph - N/A Thunderstorm Mostly Cloudy
2:00 AM 80.6 °F 83.2 °F 68.0 °F 65% 29.77 in 6.2 mi NNW 5.8 mph - N/A Thunderstorm Thunderstorm
3:00 AM 80.6 °F 85.4 °F 73.4 °F 79% 29.77 in 6.2 mi NNW 4.6 mph - N/A Thunderstorm Thunderstorm
4:00 AM 82 °F - 74 °F 69% 29.78 in 16 mi North 4.6 mph - -   Scattered Clouds
4:00 AM 82.4 °F 88.2 °F 73.4 °F 74% 29.77 in 6.2 mi North 4.6 mph - N/A Thunderstorm Partly Cloudy
5:00 AM 80.6 °F 85.4 °F 73.4 °F 79% 29.77 in 6.2 mi NW 3.5 mph - N/A   Partly Cloudy
6:00 AM 80.6 °F 86.2 °F 75.2 °F 84% 29.77 in 6.2 mi SSE 5.8 mph - N/A   Partly Cloudy
7:00 AM 82 °F - 75 °F 74% 29.81 in 14 mi NW 5.8 mph - -   Haze
7:00 AM 82.4 °F 89.5 °F 75.2 °F 79% 29.80 in 6.2 mi NW 5.8 mph - N/A   Partly Cloudy
8:00 AM 82.4 °F 89.5 °F 75.2 °F 79% 29.83 in 6.2 mi NW 3.5 mph - N/A   Scattered Clouds
9:00 AM 87.8 °F 97.6 °F 75.2 °F 66% 29.83 in 6.2 mi SE 4.6 mph - N/A   Partly Cloudy
10:00 AM 85 °F - 75 °F 66% 29.85 in 14 mi SSE 10.4 mph - -   Mostly Cloudy
10:00 AM 84.2 °F 92.3 °F 75.2 °F 74% 29.83 in 6.2 mi SSE 10.4 mph - N/A   Mostly Cloudy
11:00 AM 84.2 °F 92.3 °F 75.2 °F 74% 29.83 in 6.2 mi SSE 10.4 mph - N/A   Mostly Cloudy
12:00 PM 86.0 °F 96.9 °F 77.0 °F 74% 29.83 in 6.2 mi South 8.1 mph - N/A   Partly Cloudy
1:00 PM 89 °F - 78 °F 64% 29.81 in 15 mi South 9.2 mph - -   Mostly Cloudy
1:00 PM 87.8 °F 99.7 °F 77.0 °F 70% 29.80 in 6.2 mi SSE 9.2 mph - N/A   Mostly Cloudy
2:00 PM 87.8 °F 97.6 °F 75.2 °F 66% 29.77 in 6.2 mi SSE 9.2 mph - N/A   Scattered Clouds
3:00 PM 87.8 °F 99.7 °F 77.0 °F 70% 29.77 in 6.2 mi SSE 9.2 mph - N/A   Scattered Clouds
4:00 PM 87 °F - 77 °F 65% 29.79 in 15 mi SE 9.2 mph - -   Haze
4:00 PM 87.8 °F 99.7 °F 77.0 °F 70% 29.77 in 6.2 mi SE 9.2 mph - N/A   Partly Cloudy
5:00 PM 87.8 °F 97.6 °F 75.2 °F 66% 29.77 in 6.2 mi SE 4.6 mph - N/A   Partly Cloudy
6:00 PM 84.2 °F 92.3 °F 75.2 °F 74% 29.80 in 6.2 mi SSE 4.6 mph - N/A Thunderstorm Partly Cloudy
7:00 PM 85 °F - 77 °F 71% 29.81 in 16 mi SSE 4.6 mph - -   Haze
7:00 PM 84.2 °F 92.3 °F 75.2 °F 74% 29.80 in 6.2 mi SSE 4.6 mph - N/A   Partly Cloudy
8:00 PM 84.2 °F 94.1 °F 77.0 °F 79% 29.83 in 6.2 mi SE 5.8 mph - N/A   Partly Cloudy
9:00 PM 84.2 °F 92.3 °F 75.2 °F 74% 29.83 in 6.2 mi SE 9.2 mph - N/A   Partly Cloudy
10:00 PM 83 °F - 74 °F 69% 29.84 in 16 mi East 6.9 mph - -   Haze
10:00 PM 84.2 °F 92.3 °F 75.2 °F 74% 29.83 in 6.2 mi East 6.9 mph - N/A   Partly Cloudy
11:00 PM 84.2 °F 92.3 °F 75.2 °F 74% 29.83 in 6.2 mi SSE 3.5 mph - N/A   Partly Cloudy